"Pseudo-MPEC" for ST26F36

Created 2026 Jun 17 18:35:07 UT using Find_Orb

Click here for an explanation of pseudo-MPECs

 
 Astrometry: 
     ST26F36* C2026 06 13.42960019 14 13.104-15 18 49.05   ~6DNK 18.99GVNEOCPU68
     ST26F36  C2026 06 13.43294219 14 27.536-15 17 29.75   ~6DNK 18.99GVNEOCPU68
     ST26F36  C2026 06 13.44735519 15 29.355-15 11 49.09   ~6DNZ 18.91GVNEOCPU74
     ST26F36  C2026 06 13.44999519 15 40.504-15 10 45.56   ~6DNZ 18.91GVNEOCPU74

Station data:
(U68) JPL SynTrack Robotic Telescope, Auberry  (N37.070387 W119.412990)
   US/California.  Observers N. Saini, C. Zhai, R. Trahan, M. Zhan, M. Shao.
   0.28-m f/2.2 Schmidt + CCD.
(U74) JPL SynTrack Robotic Telescope 2, Auberry  (N37.070341 W119.412800)
   US/California.  Observers N. Saini, C. Zhai, R. Trahan, M. Zhan, M. Shao.
   0.36-m f/2.2 Schmidt.

Orbital elements:  ST26F36
   Perihelion 2026 Aug 9.404443 +/- 27.8 TT =  9:42:23.9 (JD 2461261.904443)
Epoch 2026 Jun 13.0 TT = JDT 2461204.5   Earth MOID: 0.0012   Ve: 0.0461
M 324.244524082 +/- 20              Ma: 0.0162                   AutoNEOCP
n   0.622869481 +/- 0.323           Peri.  155.775160 +/- 70
a   1.357911129 +/- 0.469           Node   190.133547 +/- 32
e   0.45402541 +/- 0.239            Incl.    0.086908 +/- 1.2
P   1.582/577.959d         H 27.69  G  0.15   U 12.0  SR
q 0.741384964 +/- 0.0875    Q 1.974437293 +/- 6.2         (J2000 ecliptic)
From 4 observations 2026 June 13 (29.4 min); mean residual 1".41
Residuals in arcseconds: 
260613 U68  1.8-  .57-    260613 U74  2.0+  .12-    
260613 U68  1.8+  .70+    260613 U74  2.1-  .02-    

Ephemerides (geocentric):
Date (UTC) HH   RA             Dec           delta  r     elong  mag " sig PA
---- --------  ------------   ------------  ------ ------ -----  --- --------
2026 06 17 19  04 13 33.995   +24 30 00.26  .02422 0.9933  20.6 30??  42d 103
2026 06 17 20  04 14 20.592   +24 29 18.65  .02453 0.9930  20.4 30??  42d 103
2026 06 17 21  04 15 06.019   +24 28 37.22  .02484 0.9927  20.3 30??  42d 103
2026 06 17 22  04 15 50.319   +24 27 56.00  .02515 0.9924  20.2 30??  42d 103
2026 06 17 23  04 16 33.533   +24 27 15.01  .02547 0.9921  20.1 30??  42d 103
2026 06 18 00  04 17 15.700   +24 26 34.26  .02578 0.9918  19.9 30??  42d 103
2026 06 18 01  04 17 56.856   +24 25 53.79  .02609 0.9915  19.8 30??  42d 103
2026 06 18 02  04 18 37.038   +24 25 13.60  .02640 0.9912  19.7 30??  42d 103
2026 06 18 03  04 19 16.278   +24 24 33.71  .02672 0.9908  19.6 30??  42d 103
2026 06 18 04  04 19 54.610   +24 23 54.13  .02703 0.9905  19.5 30??  42d 103
2026 06 18 05  04 20 32.063   +24 23 14.87  .02734 0.9902  19.4 30??  42d 103
2026 06 18 06  04 21 08.668   +24 22 35.95  .02765 .98992  19.3 30??  42d 103
2026 06 18 07  04 21 44.453   +24 21 57.36  .02797 .98962  19.2 31??  42d 103
2026 06 18 08  04 22 19.444   +24 21 19.12  .02828 .98931  19.1 31??  42d 102
2026 06 18 09  04 22 53.668   +24 20 41.24  .02859 .98900  19.0 31??  43d 102
2026 06 18 10  04 23 27.149   +24 20 03.71  .02891 .98870  18.9 31??  43d 102
2026 06 18 11  04 23 59.911   +24 19 26.54  .02922 .98839  18.8 31??  43d 102
2026 06 18 12  04 24 31.977   +24 18 49.73  .02954 .98808  18.8 31??  43d 102
2026 06 18 13  04 25 03.368   +24 18 13.29  .02985 .98777  18.7 31??  43d 102
2026 06 18 14  04 25 34.106   +24 17 37.22  .03017 .98747  18.6 31??  43d 102
2026 06 18 15  04 26 04.210   +24 17 01.52  .03048 .98716  18.5 31??  43d 102
2026 06 18 16  04 26 33.700   +24 16 26.19  .03080 .98685  18.5 31??  43d 102
2026 06 18 17  04 27 02.594   +24 15 51.22  .03111 .98654  18.4 31??  43d 102
2026 06 18 18  04 27 30.910   +24 15 16.63  .03142 .98624  18.3 31??  43d 102
2026 06 18 19  04 27 58.665   +24 14 42.40  .03174 .98593  18.2 31??  43d 102
2026 06 18 20  04 28 25.876   +24 14 08.55  .03206 .98562  18.2 31??  43d 102
2026 06 18 21  04 28 52.559   +24 13 35.05  .03237 .98532  18.1 31??  43d 102
2026 06 18 22  04 29 18.728   +24 13 01.92  .03269 .98501  18.1 31??  43d 102
2026 06 18 23  04 29 44.399   +24 12 29.16  .03300 .98470  18.0 31??  43d 102
2026 06 19 00  04 30 09.585   +24 11 56.75  .03332 .98440  17.9 31??  43d 102
2026 06 19 01  04 30 34.300   +24 11 24.70  .03363 .98409  17.9 31??  43d 102
2026 06 19 02  04 30 58.557   +24 10 53.00  .03395 .98378  17.8 31??  43d 102
2026 06 19 03  04 31 22.369   +24 10 21.66  .03427 .98348  17.8 31??  43d 102
2026 06 19 04  04 31 45.748   +24 09 50.66  .03458 .98317  17.7 31??  43d 102
2026 06 19 05  04 32 08.705   +24 09 20.01  .03490 .98286  17.7 32??  43d 102
2026 06 19 06  04 32 31.253   +24 08 49.70  .03522 .98256  17.6 32??  43d 102
2026 06 19 07  04 32 53.401   +24 08 19.72  .03553 .98225  17.6 32??  43d 102
2026 06 19 08  04 33 15.161   +24 07 50.09  .03585 .98195  17.6 32??  44d 102
2026 06 19 09  04 33 36.542   +24 07 20.78  .03617 .98164  17.5 32??  44d 102
2026 06 19 10  04 33 57.555   +24 06 51.81  .03648 .98133  17.5 32??  44d 102
2026 06 19 11  04 34 18.209   +24 06 23.15  .03680 .98103  17.4 32??  44d 102
2026 06 19 12  04 34 38.513   +24 05 54.82  .03712 .98072  17.4 32??  44d 101
2026 06 19 13  04 34 58.476   +24 05 26.80  .03743 .98041  17.4 32??  44d 101
2026 06 19 14  04 35 18.107   +24 04 59.10  .03775 .98011  17.3 32??  44d 101
2026 06 19 15  04 35 37.414   +24 04 31.71  .03807 .97980  17.3 32??  44d 101
2026 06 19 16  04 35 56.404   +24 04 04.62  .03839 .97950  17.3 32??  44d 101
2026 06 19 17  04 36 15.087   +24 03 37.84  .03870 .97919  17.2 32??  44d 101
2026 06 19 18  04 36 33.468   +24 03 11.35  .03902 .97889  17.2 32??  44d 101